Year,Month,Day,Hour,Minute,Value (Times are PST for temperature in C)
2018,11,26,00,00,5.90
2018,11,26,00,01,5.90
2018,11,26,00,02,5.90
2018,11,26,00,03,5.90
2018,11,26,00,04,5.90
2018,11,26,00,05,5.90
2018,11,26,00,06,5.90
2018,11,26,00,07,5.90
2018,11,26,00,08,5.90
2018,11,26,00,09,5.90
2018,11,26,00,10,5.90
2018,11,26,00,11,5.90
2018,11,26,00,12,5.90
2018,11,26,00,13,5.90
2018,11,26,00,14,5.90
2018,11,26,00,15,5.90
2018,11,26,00,16,5.90
2018,11,26,00,17,5.90
2018,11,26,00,18,5.90
2018,11,26,00,19,5.90
2018,11,26,00,20,5.90
2018,11,26,00,21,5.90
2018,11,26,00,22,5.90
2018,11,26,00,23,5.90
2018,11,26,00,24,6.00
2018,11,26,00,25,6.00
2018,11,26,00,26,6.00
2018,11,26,00,27,6.00
2018,11,26,00,28,6.00
2018,11,26,00,29,6.00
2018,11,26,00,30,6.00
2018,11,26,00,31,6.00
2018,11,26,00,32,6.00
2018,11,26,00,33,6.00
2018,11,26,00,34,6.00
2018,11,26,00,35,6.00
2018,11,26,00,36,6.00
2018,11,26,00,37,6.00
2018,11,26,00,38,6.00
2018,11,26,00,39,6.10
2018,11,26,00,40,6.10
2018,11,26,00,41,6.10
2018,11,26,00,42,6.10
2018,11,26,00,43,6.10
2018,11,26,00,44,6.10
2018,11,26,00,45,6.10
2018,11,26,00,46,6.10
2018,11,26,00,47,6.10
2018,11,26,00,48,6.10
2018,11,26,00,49,6.10
2018,11,26,00,50,6.10
2018,11,26,00,51,6.10
2018,11,26,00,52,6.10
2018,11,26,00,53,6.10
2018,11,26,00,54,6.10
2018,11,26,00,55,6.10
2018,11,26,00,56,6.10
2018,11,26,00,57,6.10
2018,11,26,00,58,6.10
2018,11,26,00,59,6.10
2018,11,26,01,00,6.10
2018,11,26,01,01,6.10
2018,11,26,01,02,6.10
2018,11,26,01,03,6.10
2018,11,26,01,04,6.10
2018,11,26,01,05,6.10
2018,11,26,01,06,6.10
2018,11,26,01,07,6.10
2018,11,26,01,08,6.10
2018,11,26,01,09,6.10
2018,11,26,01,10,6.10
2018,11,26,01,11,6.10
2018,11,26,01,12,6.10
2018,11,26,01,13,6.10
2018,11,26,01,14,6.10
2018,11,26,01,15,6.10
2018,11,26,01,16,6.10
2018,11,26,01,17,6.10
2018,11,26,01,18,6.10
2018,11,26,01,19,6.10
2018,11,26,01,20,6.10
2018,11,26,01,21,6.10
2018,11,26,01,22,6.10
2018,11,26,01,23,6.10
2018,11,26,01,24,6.10
2018,11,26,01,25,6.10
2018,11,26,01,26,6.10
2018,11,26,01,27,6.10
2018,11,26,01,28,6.10
2018,11,26,01,29,6.10
2018,11,26,01,30,6.10
2018,11,26,01,31,6.10
2018,11,26,01,32,6.10
2018,11,26,01,33,6.10
2018,11,26,01,34,6.10
2018,11,26,01,35,6.10
2018,11,26,01,36,6.10
2018,11,26,01,37,6.10
2018,11,26,01,38,6.10
2018,11,26,01,39,6.10
2018,11,26,01,40,6.10
2018,11,26,01,41,6.10
2018,11,26,01,42,6.10
2018,11,26,01,43,6.10
2018,11,26,01,44,6.10
2018,11,26,01,45,6.10
2018,11,26,01,46,6.10
2018,11,26,01,47,6.10
2018,11,26,01,48,6.10
2018,11,26,01,49,6.10
2018,11,26,01,50,6.10
2018,11,26,01,51,6.10
2018,11,26,01,52,6.10
2018,11,26,01,53,6.10
2018,11,26,01,54,6.10
2018,11,26,01,55,6.10
2018,11,26,01,56,6.10
2018,11,26,01,57,6.10
2018,11,26,01,58,6.10
2018,11,26,01,59,6.10
2018,11,26,02,00,6.10
2018,11,26,02,01,6.20
2018,11,26,02,02,6.10
2018,11,26,02,03,6.20
2018,11,26,02,04,6.10
2018,11,26,02,05,6.10
2018,11,26,02,06,6.10
2018,11,26,02,07,6.20
2018,11,26,02,08,6.10
2018,11,26,02,09,6.10
2018,11,26,02,10,6.10
2018,11,26,02,11,6.10
2018,11,26,02,12,6.10
2018,11,26,02,13,6.10
2018,11,26,02,14,6.10
2018,11,26,02,15,6.10
2018,11,26,02,16,6.10
2018,11,26,02,17,6.10
2018,11,26,02,18,6.10
2018,11,26,02,19,6.10
2018,11,26,02,20,6.20
2018,11,26,02,21,6.10
2018,11,26,02,22,6.20
2018,11,26,02,23,6.20
2018,11,26,02,24,6.20
2018,11,26,02,25,6.20
2018,11,26,02,26,6.20
2018,11,26,02,27,6.20
2018,11,26,02,28,6.20
2018,11,26,02,29,6.20
2018,11,26,02,30,6.20
2018,11,26,02,31,6.20
2018,11,26,02,32,6.20
2018,11,26,02,33,6.20
2018,11,26,02,34,6.20
2018,11,26,02,35,6.20
2018,11,26,02,36,6.20
2018,11,26,02,37,6.10
2018,11,26,02,38,6.20
2018,11,26,02,39,6.20
2018,11,26,02,40,6.20
2018,11,26,02,41,6.20
2018,11,26,02,42,6.20
2018,11,26,02,43,6.20
2018,11,26,02,44,6.20
2018,11,26,02,45,6.20
2018,11,26,02,46,6.20
2018,11,26,02,47,6.20
2018,11,26,02,48,6.10
2018,11,26,02,49,6.20
2018,11,26,02,50,6.20
2018,11,26,02,51,6.20
2018,11,26,02,52,6.20
2018,11,26,02,53,6.20
2018,11,26,02,54,6.20
2018,11,26,02,55,6.20
2018,11,26,02,56,6.20
2018,11,26,02,57,6.20
2018,11,26,02,58,6.20
2018,11,26,02,59,6.20
2018,11,26,03,00,6.20
2018,11,26,03,01,6.20
2018,11,26,03,02,6.20
2018,11,26,03,03,6.20
2018,11,26,03,04,6.20
2018,11,26,03,05,6.20
2018,11,26,03,06,6.20
2018,11,26,03,07,6.20
2018,11,26,03,08,6.20
2018,11,26,03,09,6.20
2018,11,26,03,10,6.20
2018,11,26,03,11,6.20
2018,11,26,03,12,6.20
2018,11,26,03,13,6.20
2018,11,26,03,14,6.20
2018,11,26,03,15,6.20
2018,11,26,03,16,6.20
2018,11,26,03,17,6.20
2018,11,26,03,18,6.20
2018,11,26,03,19,6.20
2018,11,26,03,20,6.20
2018,11,26,03,21,6.20
2018,11,26,03,22,6.20
2018,11,26,03,23,6.20
2018,11,26,03,24,6.20
2018,11,26,03,25,6.20
2018,11,26,03,26,6.20
2018,11,26,03,27,6.20
2018,11,26,03,28,6.20
2018,11,26,03,29,6.20
2018,11,26,03,30,6.20
2018,11,26,03,31,6.20
2018,11,26,03,32,6.20
2018,11,26,03,33,6.20
2018,11,26,03,34,6.20
2018,11,26,03,35,6.20
2018,11,26,03,36,6.20
2018,11,26,03,37,6.20
2018,11,26,03,38,6.20
2018,11,26,03,39,6.20
2018,11,26,03,40,6.20
2018,11,26,03,41,6.20
2018,11,26,03,42,6.20
2018,11,26,03,43,6.20
2018,11,26,03,44,6.20
2018,11,26,03,45,6.20
2018,11,26,03,46,6.20
2018,11,26,03,47,6.20
2018,11,26,03,48,6.20
2018,11,26,03,49,6.20
2018,11,26,03,50,6.20
2018,11,26,03,51,6.20
2018,11,26,03,52,6.20
2018,11,26,03,53,6.20
2018,11,26,03,54,6.20
2018,11,26,03,55,6.20
2018,11,26,03,56,6.20
2018,11,26,03,57,6.20
2018,11,26,03,58,6.20
2018,11,26,03,59,6.20
2018,11,26,04,00,6.20
2018,11,26,04,01,6.20
2018,11,26,04,02,6.20
2018,11,26,04,03,6.20
2018,11,26,04,04,6.20
2018,11,26,04,05,6.20
2018,11,26,04,06,6.20
2018,11,26,11,22,7.60
2018,11,26,11,23,7.60
2018,11,26,11,24,7.60
2018,11,26,11,25,7.60
2018,11,26,11,26,7.60
2018,11,26,11,27,7.60
2018,11,26,11,28,7.60
2018,11,26,11,29,7.60
2018,11,26,11,30,7.60
2018,11,26,11,31,7.60
2018,11,26,11,32,7.70
2018,11,26,11,33,7.70
2018,11,26,11,34,7.70
2018,11,26,11,35,7.70
2018,11,26,11,36,7.70
2018,11,26,11,37,7.80
2018,11,26,11,38,7.80
2018,11,26,11,39,7.80
2018,11,26,11,40,7.80
2018,11,26,11,41,7.80
2018,11,26,11,42,7.80
2018,11,26,11,43,7.80
2018,11,26,11,44,7.80
2018,11,26,11,45,7.80
2018,11,26,11,46,7.80
2018,11,26,11,47,7.80
2018,11,26,11,48,7.80
2018,11,26,11,49,7.80
2018,11,26,11,50,7.80
2018,11,26,11,51,7.80
2018,11,26,11,52,7.80
2018,11,26,11,53,7.90
2018,11,26,11,54,7.90
2018,11,26,11,55,7.90
2018,11,26,11,56,7.90
2018,11,26,11,57,7.90
2018,11,26,11,58,8.00
2018,11,26,11,59,8.10
2018,11,26,12,00,8.10
2018,11,26,12,01,8.10
2018,11,26,12,02,8.10
2018,11,26,12,03,8.10
2018,11,26,12,04,8.20
2018,11,26,12,05,8.20
2018,11,26,12,06,8.20
2018,11,26,12,07,8.20
2018,11,26,12,08,8.20
2018,11,26,12,09,8.20
2018,11,26,12,10,8.20
2018,11,26,12,11,8.20
2018,11,26,12,12,8.20
2018,11,26,12,13,8.20
2018,11,26,12,14,8.20
2018,11,26,12,15,8.30
2018,11,26,12,16,8.30
2018,11,26,12,17,8.30
2018,11,26,12,18,8.30
2018,11,26,12,19,8.30
2018,11,26,12,20,8.30
2018,11,26,12,21,8.30
2018,11,26,12,22,8.30
2018,11,26,12,23,8.30
2018,11,26,12,24,8.30
2018,11,26,12,25,8.40
2018,11,26,12,26,8.40
2018,11,26,12,27,8.40
2018,11,26,12,28,8.40
2018,11,26,12,29,8.40
2018,11,26,12,30,8.40
2018,11,26,12,31,8.40
2018,11,26,12,32,8.40
2018,11,26,12,33,8.40
2018,11,26,12,34,8.30
2018,11,26,12,35,8.30
2018,11,26,12,36,8.30
2018,11,26,12,37,8.30
2018,11,26,12,38,8.30
2018,11,26,12,39,8.30
2018,11,26,12,40,8.30
2018,11,26,12,41,8.40
2018,11,26,12,42,8.40
2018,11,26,12,43,8.40
2018,11,26,12,44,8.40
2018,11,26,12,45,8.40
2018,11,26,12,46,8.50
2018,11,26,12,47,8.50
2018,11,26,12,48,8.50
2018,11,26,12,49,8.50
2018,11,26,12,50,8.50
2018,11,26,12,51,8.50
2018,11,26,12,52,8.60
2018,11,26,12,53,8.60
2018,11,26,12,54,8.60
2018,11,26,12,55,8.60
2018,11,26,12,56,8.70
2018,11,26,12,57,8.70
2018,11,26,12,58,8.80
2018,11,26,12,59,8.80
2018,11,26,13,00,8.80
2018,11,26,13,01,8.80
2018,11,26,13,02,8.80
2018,11,26,13,03,8.80
2018,11,26,13,04,8.80
2018,11,26,13,05,8.80
2018,11,26,13,06,8.80
2018,11,26,13,07,8.80
2018,11,26,13,08,8.80
2018,11,26,13,09,8.80
2018,11,26,13,10,8.80
2018,11,26,13,11,8.80
2018,11,26,13,12,8.80
2018,11,26,13,13,8.80
2018,11,26,13,14,8.80
2018,11,26,13,15,8.80
2018,11,26,13,16,8.70
2018,11,26,13,17,8.70
2018,11,26,13,18,8.70
2018,11,26,13,19,8.70
2018,11,26,13,20,8.70
2018,11,26,13,21,8.70
2018,11,26,13,22,8.70
2018,11,26,13,23,8.70
2018,11,26,13,24,8.70
2018,11,26,13,25,8.60
2018,11,26,13,26,8.60
2018,11,26,13,27,8.60
2018,11,26,13,28,8.60
2018,11,26,13,29,8.60
2018,11,26,13,30,8.70
2018,11,26,13,31,8.60
2018,11,26,13,32,8.60
2018,11,26,13,33,8.60
2018,11,26,13,34,8.60
2018,11,26,13,35,8.60
2018,11,26,13,36,8.60
2018,11,26,13,37,8.60
2018,11,26,13,38,8.60
2018,11,26,13,39,8.60
2018,11,26,13,40,8.50
2018,11,26,13,41,8.50
2018,11,26,13,42,8.40
2018,11,26,13,43,8.40
2018,11,26,13,44,8.40
2018,11,26,13,45,8.40
2018,11,26,13,46,8.40
2018,11,26,13,47,8.40
2018,11,26,13,48,8.30
2018,11,26,13,49,8.30
2018,11,26,13,50,8.30
2018,11,26,13,51,8.30
2018,11,26,13,52,8.30
2018,11,26,13,53,8.30
2018,11,26,13,54,8.30
2018,11,26,13,55,8.30
2018,11,26,13,56,8.30
2018,11,26,13,57,8.30
2018,11,26,13,58,8.30
2018,11,26,13,59,8.30
2018,11,26,14,00,8.30
2018,11,26,14,01,8.30
2018,11,26,14,02,8.30
2018,11,26,14,03,8.30
2018,11,26,14,04,8.30
2018,11,26,14,05,8.30
2018,11,26,14,06,8.30
2018,11,26,14,07,8.30
2018,11,26,14,08,8.30
2018,11,26,14,09,8.30
2018,11,26,14,10,8.30
2018,11,26,14,11,8.30
2018,11,26,14,12,8.30
2018,11,26,14,13,8.30
2018,11,26,14,14,8.30
2018,11,26,14,15,8.30
2018,11,26,14,16,8.30
2018,11,26,14,17,8.30
2018,11,26,14,18,8.30
2018,11,26,14,19,8.30
2018,11,26,14,20,8.30
2018,11,26,14,21,8.30
2018,11,26,14,22,8.30
2018,11,26,14,23,8.30
2018,11,26,14,24,8.30
2018,11,26,14,25,8.30
2018,11,26,14,26,8.30
2018,11,26,14,27,8.30
2018,11,26,14,28,8.30
2018,11,26,14,29,8.30
2018,11,26,14,30,8.30
2018,11,26,14,31,8.30
2018,11,26,14,32,8.30
2018,11,26,14,33,8.30
2018,11,26,14,34,8.30
2018,11,26,14,35,8.30
2018,11,26,14,36,8.30
2018,11,26,14,37,8.30
2018,11,26,14,38,8.40
2018,11,26,14,39,8.40
2018,11,26,14,40,8.40
2018,11,26,14,41,8.40
2018,11,26,14,42,8.40
2018,11,26,14,43,8.40
2018,11,26,14,44,8.40
2018,11,26,14,45,8.40
2018,11,26,14,46,8.40
2018,11,26,14,47,8.40
2018,11,26,14,48,8.40
2018,11,26,14,49,8.40
2018,11,26,14,50,8.50
2018,11,26,14,51,8.50
2018,11,26,14,52,8.60
2018,11,26,14,53,8.60
2018,11,26,14,54,8.60
2018,11,26,14,55,8.60
2018,11,26,14,56,8.60
2018,11,26,14,57,8.60
2018,11,26,14,58,8.60
2018,11,26,14,59,8.60
2018,11,26,15,00,8.60
2018,11,26,15,01,8.70
2018,11,26,15,02,8.70
2018,11,26,15,03,8.70
2018,11,26,15,04,8.70
2018,11,26,15,05,8.70
2018,11,26,15,06,8.70
2018,11,26,15,07,8.70
2018,11,26,15,08,8.70
2018,11,26,15,09,8.70
2018,11,26,15,10,8.70
2018,11,26,15,11,8.70
2018,11,26,15,12,8.70
2018,11,26,15,13,8.80
2018,11,26,15,14,8.80
2018,11,26,15,15,8.80
2018,11,26,15,16,8.80
2018,11,26,15,17,8.80
2018,11,26,15,18,8.80
2018,11,26,15,19,8.80
2018,11,26,15,20,8.80
2018,11,26,15,21,8.80
2018,11,26,15,22,8.80
2018,11,26,15,23,8.80
2018,11,26,15,24,8.80
2018,11,26,15,25,8.80
2018,11,26,15,26,8.80
2018,11,26,15,27,8.80
2018,11,26,15,28,8.80
2018,11,26,15,29,8.80
2018,11,26,15,30,8.80
2018,11,26,15,31,8.80
2018,11,26,15,32,8.80
2018,11,26,15,33,8.80
2018,11,26,15,34,8.80
2018,11,26,15,35,8.80
2018,11,26,15,36,8.80
2018,11,26,15,37,8.80
2018,11,26,15,38,8.80
2018,11,26,15,39,8.90
2018,11,26,15,40,8.90
2018,11,26,15,41,8.90
2018,11,26,15,42,8.90
2018,11,26,15,43,8.90
2018,11,26,15,44,8.90
2018,11,26,15,45,8.90
2018,11,26,15,46,8.90
2018,11,26,15,47,8.90
2018,11,26,15,48,8.90
2018,11,26,15,49,8.90
2018,11,26,15,50,8.90
2018,11,26,15,51,8.90
2018,11,26,15,52,8.90
2018,11,26,15,53,8.90
2018,11,26,15,54,8.90
2018,11,26,15,55,8.90
2018,11,26,15,56,8.90
2018,11,26,15,57,8.90
2018,11,26,15,58,8.90
2018,11,26,15,59,8.90
2018,11,26,16,00,8.90
2018,11,26,16,01,8.90
2018,11,26,16,02,8.90
2018,11,26,16,03,8.90
2018,11,26,16,04,8.90
2018,11,26,16,05,8.90
2018,11,26,16,06,8.90
2018,11,26,16,07,8.80
2018,11,26,16,08,8.80
2018,11,26,16,09,8.90
2018,11,26,16,10,8.90
2018,11,26,16,11,8.90
2018,11,26,16,12,8.90
2018,11,26,16,13,8.90
2018,11,26,16,14,8.90
2018,11,26,16,15,8.90
2018,11,26,16,16,8.90
2018,11,26,16,17,8.90
2018,11,26,16,18,8.90
2018,11,26,16,19,8.90
2018,11,26,16,20,8.90
2018,11,26,16,21,8.90
2018,11,26,16,22,8.90
2018,11,26,16,23,8.90
2018,11,26,16,24,8.90
2018,11,26,16,25,8.90
2018,11,26,16,26,8.90
2018,11,26,16,27,8.90
2018,11,26,16,28,8.90
2018,11,26,16,29,8.90
2018,11,26,16,30,8.90
2018,11,26,16,31,8.90
2018,11,26,16,32,8.90
2018,11,26,16,33,8.90
2018,11,26,16,34,8.90
2018,11,26,16,35,8.90
2018,11,26,16,36,8.90
2018,11,26,16,37,8.90
2018,11,26,16,38,8.90
2018,11,26,16,39,8.90
2018,11,26,16,40,8.90
2018,11,26,16,41,8.90
2018,11,26,16,42,8.90
2018,11,26,16,43,8.90
2018,11,26,16,44,8.90
2018,11,26,16,45,8.90
2018,11,26,16,46,8.90
2018,11,26,16,47,8.90
2018,11,26,16,48,8.90
2018,11,26,16,49,8.90
2018,11,26,16,50,8.90
2018,11,26,16,51,8.90
2018,11,26,16,52,8.90
2018,11,26,16,53,8.90
2018,11,26,16,54,8.90
2018,11,26,16,55,8.90
2018,11,26,16,56,8.90
2018,11,26,16,57,8.90
2018,11,26,16,58,9.00
2018,11,26,16,59,9.00
2018,11,26,17,00,9.00
2018,11,26,17,01,9.00
2018,11,26,17,02,9.00
2018,11,26,17,03,9.00
2018,11,26,17,04,9.00
2018,11,26,17,05,9.00
2018,11,26,17,06,9.00
2018,11,26,17,07,9.00
2018,11,26,17,08,8.90
2018,11,26,17,09,9.00
2018,11,26,17,10,9.00
2018,11,26,17,11,9.00
2018,11,26,17,12,9.00
2018,11,26,17,13,9.00
2018,11,26,17,14,9.00
2018,11,26,17,15,9.00
2018,11,26,17,16,9.00
2018,11,26,17,17,9.00
2018,11,26,17,18,9.00
2018,11,26,17,19,9.00
2018,11,26,17,20,9.10
2018,11,26,17,21,9.10
2018,11,26,17,22,9.10
2018,11,26,17,23,9.10
2018,11,26,17,24,9.10
2018,11,26,17,25,9.10
2018,11,26,17,26,9.10
2018,11,26,17,27,9.10
2018,11,26,17,28,9.10
2018,11,26,17,29,9.10
2018,11,26,17,30,9.10
2018,11,26,17,31,9.10
2018,11,26,17,32,9.20
2018,11,26,17,33,9.10
2018,11,26,17,34,9.10
2018,11,26,17,35,9.10
2018,11,26,17,36,9.10
2018,11,26,17,37,9.10
2018,11,26,17,38,9.10
2018,11,26,17,39,9.10
2018,11,26,17,40,9.10
2018,11,26,17,41,9.20
2018,11,26,17,42,9.20
2018,11,26,17,43,9.20
2018,11,26,17,44,9.20
2018,11,26,17,45,9.20
2018,11,26,17,46,9.20
2018,11,26,17,47,9.20
2018,11,26,17,48,9.20
2018,11,26,17,49,9.20
2018,11,26,17,50,9.20
2018,11,26,17,51,9.20
2018,11,26,17,52,9.20
2018,11,26,17,53,9.20
2018,11,26,17,54,9.20
2018,11,26,17,55,9.30
2018,11,26,17,56,9.30
2018,11,26,17,57,9.30
2018,11,26,17,58,9.30
2018,11,26,17,59,9.30
2018,11,26,18,00,9.20
2018,11,26,18,01,9.20
2018,11,26,18,02,9.20
2018,11,26,18,03,9.20
2018,11,26,18,04,9.20
2018,11,26,18,05,9.20
2018,11,26,18,06,9.20
2018,11,26,18,07,9.20
2018,11,26,18,08,9.20
2018,11,26,18,09,9.20
2018,11,26,18,10,9.20
2018,11,26,18,11,9.20
2018,11,26,18,12,9.20
2018,11,26,18,13,9.20
2018,11,26,18,14,9.20
2018,11,26,18,15,9.20
2018,11,26,18,16,9.20
2018,11,26,18,17,9.20
2018,11,26,18,18,9.20
2018,11,26,18,19,9.20
2018,11,26,18,20,9.20
2018,11,26,18,21,9.20
2018,11,26,18,22,9.20
2018,11,26,18,23,9.20
2018,11,26,18,24,9.20
2018,11,26,18,25,9.30
2018,11,26,18,26,9.20
2018,11,26,18,27,9.20
2018,11,26,18,28,9.20
2018,11,26,18,29,9.20
2018,11,26,18,30,9.20
2018,11,26,18,31,9.20
2018,11,26,18,32,9.20
2018,11,26,18,33,9.20
2018,11,26,18,34,9.20
2018,11,26,18,35,9.20
2018,11,26,18,36,9.10
2018,11,26,18,37,9.10
2018,11,26,18,38,9.10
2018,11,26,18,39,9.10
2018,11,26,18,40,9.10
2018,11,26,18,41,9.10
2018,11,26,18,42,9.10
2018,11,26,18,43,9.10
2018,11,26,18,44,9.10
2018,11,26,18,45,9.10
2018,11,26,18,46,9.20
2018,11,26,18,47,9.20
2018,11,26,18,48,9.20
2018,11,26,18,49,9.20
2018,11,26,18,50,9.20
2018,11,26,18,51,9.20
2018,11,26,18,52,9.20
2018,11,26,18,53,9.20
2018,11,26,18,54,9.20
2018,11,26,18,55,9.20
2018,11,26,18,56,9.20
2018,11,26,18,57,9.20
2018,11,26,18,58,9.20
2018,11,26,18,59,9.20
2018,11,26,19,00,9.20
2018,11,26,19,01,9.20
2018,11,26,19,02,9.20
2018,11,26,19,03,9.20
2018,11,26,19,04,9.20
2018,11,26,19,05,9.20
2018,11,26,19,06,9.20
2018,11,26,19,07,9.20
2018,11,26,19,08,9.20
2018,11,26,19,09,9.20
2018,11,26,19,10,9.20
2018,11,26,19,11,9.20
2018,11,26,19,12,9.30
2018,11,26,19,13,9.30
2018,11,26,19,14,9.30
2018,11,26,19,15,9.30
2018,11,26,19,16,9.30
2018,11,26,19,17,9.30
2018,11,26,19,18,9.30
2018,11,26,19,19,9.30
2018,11,26,19,20,9.30
2018,11,26,19,21,9.30
2018,11,26,19,22,9.30
2018,11,26,19,23,9.30
2018,11,26,19,24,9.30
2018,11,26,19,25,9.30
2018,11,26,19,26,9.30
2018,11,26,19,27,9.30
2018,11,26,19,28,9.30
2018,11,26,19,29,9.30
2018,11,26,19,30,9.30
2018,11,26,19,31,9.30
2018,11,26,19,32,9.30
2018,11,26,19,33,9.30
2018,11,26,19,34,9.30
2018,11,26,19,35,9.30
2018,11,26,19,36,9.40
2018,11,26,19,37,9.40
2018,11,26,19,38,9.40
2018,11,26,19,39,9.40
2018,11,26,19,40,9.40
2018,11,26,19,41,9.40
2018,11,26,19,42,9.40
2018,11,26,19,43,9.40
2018,11,26,19,44,9.40
2018,11,26,19,45,9.40
2018,11,26,19,46,9.40
2018,11,26,19,47,9.40
2018,11,26,19,48,9.40
2018,11,26,19,49,9.40
2018,11,26,19,50,9.40
2018,11,26,19,51,9.40
2018,11,26,19,52,9.40
2018,11,26,19,53,9.40
2018,11,26,19,54,9.40
2018,11,26,19,55,9.40
2018,11,26,19,56,9.40
2018,11,26,19,57,9.40
2018,11,26,19,58,9.40
2018,11,26,19,59,9.40
2018,11,26,20,00,9.40
2018,11,26,20,01,9.40
2018,11,26,20,02,9.50
2018,11,26,20,03,9.50
2018,11,26,20,04,9.50
2018,11,26,20,05,9.50
2018,11,26,20,06,9.50
2018,11,26,20,07,9.50
2018,11,26,20,08,9.50
2018,11,26,20,09,9.50
2018,11,26,20,10,9.50
2018,11,26,20,11,9.50
2018,11,26,20,12,9.50
2018,11,26,20,13,9.50
2018,11,26,20,14,9.50
2018,11,26,20,15,9.50
2018,11,26,20,16,9.50
2018,11,26,20,17,9.50
2018,11,26,20,18,9.50
2018,11,26,20,19,9.40
2018,11,26,20,20,9.40
2018,11,26,20,21,9.40
2018,11,26,20,22,9.40
2018,11,26,20,23,9.40
2018,11,26,20,24,9.40
2018,11,26,20,25,9.40
2018,11,26,20,26,9.40
2018,11,26,20,27,9.40
2018,11,26,20,28,9.50
2018,11,26,20,29,9.40
2018,11,26,20,30,9.40
2018,11,26,20,31,9.40
2018,11,26,20,32,9.40
2018,11,26,20,33,9.50
2018,11,26,20,34,9.50
2018,11,26,20,35,9.50
2018,11,26,20,36,9.50
2018,11,26,20,37,9.50
2018,11,26,20,38,9.50
2018,11,26,20,39,9.50
2018,11,26,20,40,9.50
2018,11,26,20,41,9.40
2018,11,26,20,42,9.40
2018,11,26,20,43,9.40
2018,11,26,20,44,9.40
2018,11,26,20,45,9.40
2018,11,26,20,46,9.40
2018,11,26,20,47,9.40
2018,11,26,20,48,9.40
2018,11,26,20,49,9.40
2018,11,26,20,50,9.40
2018,11,26,20,51,9.40
2018,11,26,20,52,9.40
2018,11,26,20,53,9.40
2018,11,26,20,54,9.40
2018,11,26,20,55,9.40
2018,11,26,20,56,9.40
2018,11,26,20,57,9.40
2018,11,26,20,58,9.40
2018,11,26,20,59,9.40
2018,11,26,21,00,9.40
2018,11,26,21,01,9.40
2018,11,26,21,02,9.40
2018,11,26,21,03,9.40
2018,11,26,21,04,9.40
2018,11,26,21,05,9.40
2018,11,26,21,06,9.30
2018,11,26,21,07,9.30
2018,11,26,21,08,9.30
2018,11,26,21,09,9.30
2018,11,26,21,10,9.30
2018,11,26,21,11,9.30
2018,11,26,21,12,9.30
2018,11,26,21,13,9.30
2018,11,26,21,14,9.30
2018,11,26,21,15,9.30
2018,11,26,21,16,9.30
2018,11,26,21,17,9.30
2018,11,26,21,18,9.30
2018,11,26,21,19,9.30
2018,11,26,21,20,9.30
2018,11,26,21,21,9.30
2018,11,26,21,22,9.30
2018,11,26,21,23,9.30
2018,11,26,21,24,9.30
2018,11,26,21,25,9.30
2018,11,26,21,26,9.30
2018,11,26,21,27,9.30
2018,11,26,21,28,9.30
2018,11,26,21,29,9.30
2018,11,26,21,30,9.30
2018,11,26,21,31,9.30
2018,11,26,21,32,9.30
2018,11,26,21,33,9.30
2018,11,26,21,34,9.30
2018,11,26,21,35,9.30
2018,11,26,21,36,9.30
2018,11,26,21,37,9.30
2018,11,26,21,38,9.30
2018,11,26,21,39,9.30
2018,11,26,21,40,9.30
2018,11,26,21,41,9.30
2018,11,26,21,42,9.30
2018,11,26,21,43,9.30
2018,11,26,21,44,9.30
2018,11,26,21,45,9.30
2018,11,26,21,46,9.30
2018,11,26,21,47,9.30
2018,11,26,21,48,9.30
2018,11,26,21,49,9.30
2018,11,26,21,50,9.30
2018,11,26,21,51,9.30
2018,11,26,21,52,9.30
2018,11,26,21,53,9.30
2018,11,26,21,54,9.30
2018,11,26,21,55,9.30
2018,11,26,21,56,9.30
2018,11,26,21,57,9.30
2018,11,26,21,58,9.30
2018,11,26,21,59,9.30
2018,11,26,22,00,9.30
2018,11,26,22,01,9.30
2018,11,26,22,02,9.30
2018,11,26,22,03,9.30
2018,11,26,22,04,9.30
2018,11,26,22,05,9.30
